User: anonymous   Login
Location: ??????
(36.0418°N, 43.6351°E)
Time: 10:58:22
(UTC+00:00)
Language:

USA 238 - Orbit

View from above orbital plane
View from above orbital plane
View from above satellite
View from above satellite

Ground track
Ground track

The orbit data is extracted from the following two-line orbital elements,

1 38758U 12048A   21108.83071467 0.00000000  00000-0  00000-0 0    07
2 38758  63.4359 333.9594 0149787 359.7902   0.2098 13.40821748    07
Epoch (UTC): 18 April 2021 19:56:13
Eccentricity: 0.0149787
inclination: 63.4359°
perigee height: 994 km
apogee height: 1218 km
right ascension of ascending node: 333.9594°
argument of perigee: 359.7902°
revolutions per day: 13.40821748
mean anomaly at epoch: 0.2098°
orbit number at epoch: 0

The dashed part of the orbit path shows where the satellite is in the earth's shadow,  

DLR